Home   Weather   Volgograd   Past weeks

Flag for Russia Past Weather in Volgograd, Russia — Yesterday and Last 2 Weeks

Now
19 °F

Sunny.


Feels Like: 4 °F
Forecast: 18 / 33 °F
Wind: 20 mph from Northwest

Location: Volgograd Airport

Current Time: Jan 22, 2017 at 11:33:10 am

Latest Report: Jan 22, 2017 at 10:30 am


Visibility: 10 mi

Pressure: 30.15 "Hg

Humidity: 79%

Dew Point: 14 °F

Location of VolgogradLocation

Past Weather in Volgograd — Graph

°F

Volgograd Temperature Yesterday

Maximum temperature yesterday: 28 °F (at 9:30 pm)
Minimum temperature yesterday: 21 °F (at 12:00 am)
Average temperature yesterday: 24 °F

High & Low Weather Summary for the Past Weeks

 TemperatureHumidityPressure
High34 °F (Jan 7, 3:00 pm)100% (Jan 7, 10:00 am)30.54 "Hg (Jan 7, 10:00 am)
Low9 °F (Jan 11, 6:00 am)73% (Jan 22, 3:30 am)29.80 "Hg (Jan 21, 8:30 pm)
Average23 °F94%30.20 "Hg
* Reported Jan 7 10:00 am — Jan 22 10:30 am, Volgograd, Weather by CustomWeather, © 2017

Note: Actual official high and low records may vary slightly from our data, if they occured in-between our weather recording intervals... More about our weather records

Advertising

Volgograd Weather History for the Previous 24 Hours

Scroll right to see more
 ConditionsComfort  
Time TempWeatherWind HumidityBarometerVisibility
10:30 am
Sun, Jan 22
19 °FSunny.20 mph79%30.15 "Hg10 mi
10:00 am19 °FSunny.20 mph79%30.12 "Hg10 mi
9:30 am18 °FSunny.15 mph86%30.12 "Hg10 mi
9:00 am16 °FSunny.17 mph93%30.12 "Hg10 mi
8:30 am16 °FSunny.13 mph86%30.09 "Hg10 mi
8:00 am14 °FSunny.10 mph85%30.09 "Hg10 mi
7:30 am14 °FSunny.13 mph92%30.07 "Hg10 mi
7:00 am12 °FSunny.10 mph92%30.07 "Hg10 mi
6:30 am14 °FClear.10 mph85%30.04 "Hg10 mi
6:00 am14 °FClear.10 mph85%30.04 "Hg10 mi
5:30 am16 °FClear.13 mph86%30.01 "Hg10 mi
5:00 am18 °FClear.13 mph79%30.01 "Hg10 mi
4:30 am19 °FClear.15 mph73%29.98 "Hg10 mi
4:00 am19 °FLow level haze.15 mph73%29.95 "HgN/A
3:30 am19 °FLow level haze.17 mph73%29.95 "HgN/A
3:00 am21 °FLow level haze.22 mph74%29.92 "HgN/A
2:00 am25 °FPassing clouds.17 mph74%29.86 "HgN/A
1:30 am27 °FPassing clouds.20 mph86%29.86 "HgN/A
1:00 am27 °FSnow flurries. Passing clouds.22 mph86%29.83 "Hg1 mi
12:30 am28 °FChilly.22 mph100%29.80 "Hg1 mi
12:00 am28 °FSnow flurries. Passing clouds.22 mph93%29.80 "Hg3 mi
11:30 pm
Sat, Jan 21
28 °FSnow flurries. Passing clouds.22 mph93%29.80 "Hg6 mi
11:00 pm28 °FPassing clouds.22 mph93%29.80 "Hg6 mi
10:30 pm28 °FSnow flurries. Passing clouds.22 mph93%29.80 "Hg4 mi
10:00 pm28 °FSnow flurries. Passing clouds.22 mph93%29.80 "Hg2 mi
9:30 pm28 °FSnow flurries. Passing clouds.24 mph93%29.80 "Hg2 mi
9:00 pm27 °FSnow flurries. Passing clouds.22 mph100%29.80 "Hg1 mi
8:30 pm27 °FSnow showers. Passing clouds.22 mph93%29.80 "Hg1 mi
8:00 pm27 °FChilly.22 mph93%29.83 "Hg1 mi
7:30 pm27 °FSnow flurries. Passing clouds.22 mph93%29.83 "Hg3 mi
7:00 pm27 °FSnow flurries. Passing clouds.22 mph93%29.83 "Hg2 mi
6:30 pm27 °FSnow flurries. Passing clouds.20 mph93%29.83 "Hg5 mi
6:00 pm27 °FSnow flurries. Passing clouds.20 mph93%29.86 "Hg5 mi
5:30 pm27 °FSnow flurries. Passing clouds.20 mph93%29.86 "Hg4 mi
5:00 pm27 °FSnow flurries. Passing clouds.20 mph93%29.86 "Hg4 mi
4:30 pm27 °FSnow flurries. Passing clouds.20 mph86%29.89 "Hg6 mi
4:00 pm27 °FLow clouds.20 mph86%29.89 "HgN/A
3:30 pm27 °FLow clouds.17 mph86%29.92 "HgN/A
3:00 pm27 °FLow clouds.17 mph86%29.92 "HgN/A
2:30 pm27 °FLow clouds.20 mph86%29.92 "HgN/A
2:00 pm27 °FOvercast.17 mph86%29.92 "HgN/A
1:30 pm27 °FOvercast.20 mph80%29.95 "HgN/A
1:00 pm27 °FLight snow. Low clouds.17 mph86%29.95 "HgN/A
12:30 pm25 °FLight snow. Low clouds.17 mph93%29.95 "Hg6 mi
12:00 pm25 °FLight snow. Low clouds.17 mph93%29.98 "Hg6 mi
11:30 am25 °FLight snow. Low clouds.15 mph86%30.01 "Hg5 mi
11:00 am25 °FLight snow. Low clouds.15 mph86%30.01 "Hg4 mi
Weather by CustomWeather, © 2017

See weather overviewHow to use our weather pages